Regional Weather Roundup
Issued by NWS

Home | Current Version | Previous Version | Text Only | Print | Product List | Glossary On
Versions: 1 2 3 4 5 6 7 8 9 10 11 12 13 14 15 16 17 18 19 20 21 22 23 24 25 26 27 28 29 30 31 32 33 34 35 36 37 38 39 40 41 42 43 44 45 46 47 48 49 50
000
ASUS44 KJAN 032010
RWRMS

MISSISSIPPI HOURLY WEATHER ROUNDUP
NATIONAL WEATHER SERVICE JACKSON MS
300 PM CDT MON AUG 03 2015

NOTE: "FAIR: INDICATES FEW OR NO CLOUDS BELOW 12,000 FEET WITH NO
SIGNIFICANT WEATHER AND/OR OBSTRUCTIONS TO VISIBILITY.

MSZ001>002-007>008-010>013-018>021-025>028-034>036-032100-
NORTHWEST MISSISSIPPI

CITY           SKY/WX    TMP DP  RH WIND       PRES   REMARKS
CLARKSDALE     FAIR      95  70  43 W5        29.94S HX 101
CLEVELAND      FAIR      95  67  40 CALM      29.92F HX  99
GREENWOOD      SUNNY     95  65  37 E5        29.92F HX  97
GREENVILLE     MOSUNNY   95  70  44 E5        29.92F HX 101
OLIVE BRANCH   PTSUNNY   93  64  38 N5        29.93F HX  95
OXFORD         FAIR      93  64  38 CALM      29.96S HX  95
TUNICA         PTCLDY    93  66  40 CALM      29.94S HX  96
$$

MSZ003>006-009-014>017-022>024-029>033-037>039-032100-
NORTHEAST MISSISSIPPI

CITY           SKY/WX    TMP DP  RH WIND       PRES   REMARKS
COLUMBUS AFB   SUNNY     95  64  35 NE6       29.91F HX  96
CORINTH        FAIR      95  66  38 N3        29.92F HX  98
GOLDN TRIANGLE MOSUNNY   99  61  28 NE8       29.93F HX  99
STARKVILLE     FAIR      91  63  38 NE3       29.94S HX  92
TUPELO         SUNNY     95  66  38 SW5       29.93F HX  98
$$

MSZ040-058-032100-
CENTRAL MISSISSIPPI

CITY           SKY/WX    TMP DP  RH WIND       PRES   REMARKS
JACKSON INTL   MOSUNNY   99  61  28 N7G17     29.92S HX  99
JACKSON HAWKNS NOT AVBL
MERIDIAN KEY   SUNNY     96  52  22 CALM      29.92F HX  93
MERIDIAN NAS   MOSUNNY   97  55  24 SE7       29.92F HX  95
VICKSBURG      SUNNY     98  66  34 NE7       29.92F HX 101
$$

MSZ059>079-032100-
SOUTH MISSISSIPPI

CITY           SKY/WX    TMP DP  RH WIND       PRES   REMARKS
BROOKHAVEN     FAIR      91  64  40 N3        29.95S HX  93
HATTIESBURG    SUNNY     97  56  25 NE6       29.92S HX  95
MCCOMB         MOSUNNY   97  62  31 VRB3      29.93R HX  98
NATCHEZ        MOSUNNY   93  68  43 N8        29.93R HX  97
PINE BELT      SUNNY     97  59  28 E3        29.94S HX  96
$$

MSZ080>082-032100-
COASTAL MISSISSIPPI

CITY           SKY/WX    TMP DP  RH WIND       PRES   REMARKS
BAY ST LOUIS   MOSUNNY   91  66  43 S12       29.92R HX  94
BILOXI         SUNNY     90  78  68 SW18      29.91F HX 104
PASCAGOULA     SUNNY     90  76  63 SW9G20    29.92R HX 101
GULFPORT       SUNNY     90  77  65 S12G20    29.91S HX 103
$$


USA.gov is the U.S. government's official web portal to all federal, state and local government web resources and services.